User: anonymous   Login
Location: Bowman Observatory
(41.0326°N, 73.6210°W)
Time: 08:11:54
(UTC-05:00)
Language:

Cosmos 2298 Rocket - Orbit

View from above orbital plane
View from above orbital plane
View from above satellite
View from above satellite

Ground track
Ground track

The orbit data is extracted from the following two-line orbital elements,

1 23432U 94083B   17020.71849365 -.00000003  00000-0  83909-5 0  9999
2 23432  74.0304 207.6364 0004287  92.0915 324.5267 14.33463974155171
Epoch (UTC): 20 January 2017 17:14:37
Eccentricity: 0.0004287
inclination: 74.0304°
perigee height: 777 km
apogee height: 783 km
right ascension of ascending node: 207.6364°
argument of perigee: 92.0915°
revolutions per day: 14.33463974
mean anomaly at epoch: 324.5267°
orbit number at epoch: 15517

The dashed part of the orbit path shows where the satellite is in the earth's shadow,  

DLR